This is the latest recevied weather packets stored in our database for station/object W4GAP. If no packets are shown the sender has not sent any weather packets the latest 10 day(s).
| Time | Temp. | Humidity | Pressure | Rain* | Wind** | Luminosity | Snow |
|---|---|---|---|---|---|---|---|
| 1778172882 | 18.89° C | 99% | 1009.1 hPa | 0 mm | - | 88 W/m² | - |
| 1778172579 | 18.33° C | 99% | 1009.1 hPa | 0 mm | - | 132 W/m² | - |
| 1778172276 | 18.89° C | 99% | 1009.1 hPa | 0 mm | - | 472 W/m² | - |
| 1778171972 | 18.89° C | 99% | 1009.5 hPa | 0 mm | - | 772 W/m² | - |
| 1778171670 | 18.33° C | 99% | 1009.4 hPa | 0 mm | - | 812 W/m² | - |
| 1778171367 | 18.89° C | 99% | 1009.2 hPa | 0 mm | - | 597 W/m² | - |
| 1778171062 | 17.78° C | 99% | 1009.3 hPa | 0 mm | - | 538 W/m² | - |
| 1778170760 | 18.33° C | 99% | 1009.1 hPa | 0 mm | - | 755 W/m² | - |
| 1778170455 | 18.33° C | 99% | 1008.9 hPa | 0 mm | - | 49 W/m² | - |
| 1778170152 | 18.89° C | 99% | 1009.3 hPa | 0 mm | - | 116 W/m² | - |
| 1778169848 | 18.33° C | 99% | 1009.2 hPa | 0 mm | - | 138 W/m² | - |
| 1778169544 | 18.33° C | 99% | 1009 hPa | 0 mm | - | 86 W/m² | - |
| 1778169240 | 18.33° C | 99% | 1009.1 hPa | 0 mm | - | 55 W/m² | - |
| 1778168937 | 18.89° C | 99% | 1009 hPa | 0 mm | - | 108 W/m² | - |
| 1778168634 | 18.33° C | 99% | 1008.6 hPa | 0 mm | - | 318 W/m² | - |
| 1778168388 | 18.33° C | 99% | 1008.5 hPa | 0 mm | - | 58 W/m² | - |
| 1778168332 | 18.33° C | 99% | 1008.5 hPa | 0 mm | - | 58 W/m² | - |
| 1778168167 | 17.78° C | 99% | 1008.8 hPa | 0 mm | - | 65 W/m² | - |
| 1778168028 | 17.78° C | 99% | 1008.8 hPa | 0 mm | - | 65 W/m² | - |
| 1778167724 | 17.78° C | 99% | 1008.9 hPa | 0 mm | - | 56 W/m² | - |
| 1778167474 | 17.78° C | 99% | 1008.7 hPa | 0 mm | - | 65 W/m² | - |
| 1778167421 | 17.78° C | 99% | 1009.1 hPa | 0 mm | - | 142 W/m² | - |
| 1778167117 | 17.78° C | 99% | 1008.7 hPa | 0 mm | - | 65 W/m² | - |
| 1778166813 | 17.78° C | 99% | 1008.7 hPa | 0 mm | - | 79 W/m² | - |
| 1778166511 | 18.33° C | 99% | 1008.7 hPa | 0 mm | - | 151 W/m² | - |
* Rain latest hour (hover to see other rain measurements)
** Current wind speed in m/s (hover to see current wind gust speed)